GFSGBSN_2pvu_pres_030.txt.gz
Presure
196 190 198 193 180 186 180 178 184 172 207 173 198 194 200 219 218 218 190 215 204 204 196 184 210 193 190 198 207 200 196 209 202 212 205 215 183 193 195 209 275 236 266 286 284 268 252
183 191 192 194 181 178 201 174 203 176 163 198 184 189 198 193 201 208 206 205 200 197 207 196 200 193 201 196 196 202 199 200 197 210 214 206 201 184 209 215 257 230 269 301 260 261 255
195 207 183 197 167 194 188 197 188 141 226 157 179 162 160 195 194 186 166 195 198 192 199 192 192 197 201 199 178 196 176 176 192 202 220 217 170 206 206 218 247 220 261 280 255 273 244
197 194 195 201 187 182 191 183 168 168 184 186 167 204 168 187 189 199 190 197 193 190 188 182 181 179 178 185 179 181 196 191 193 213 192 214 188 202 189 220 247 213 247 250 255 260 244
185 198 186 202 181 171 167 192 179 192 213 191 177 169 187 186 169 166 194 180 185 183 191 191 187 182 176 179 187 195 181 207 205 201 220 207 215 193 181 213 225 213 233 240 237 264 258
188 198 189 188 191 189 193 175 187 191 201 168 196 173 184 208 138 177 156 159 184 177 183 188 194 186 189 196 193 188 204 204 186 204 195 201 179 196 177 206 213 242 218 248 232 241 236
207 200 192 197 200 205 201 172 158 204 182 195 227 195 174 185 213 187 195 178 183 199 182 192 169 176 191 178 193 196 206 176 190 189 178 198 195 190 179 197 212 247 208 243 232 235 239
217 217 211 203 203 194 185 190 216 198 175 181 207 176 184 205 185 168 186 193 174 179 171 186 194 170 182 182 191 181 193 207 175 206 168 195 208 188 213 196 209 249 207 223 237 221 236
225 221 220 207 228 219 194 218 195 204 210 177 182 204 180 192 196 176 186 200 172 158 183 185 192 183 191 178 198 182 201 187 204 165 210 193 204 175 171 192 202 228 207 210 231 236 221
211 220 215 203 199 227 214 201 192 223 198 192 198 202 175 203 156 170 203 184 152 168 155 192 199 200 187 175 186 202 193 195 177 203 176 221 202 177 186 189 197 202 254 206 225 240 239
218 236 225 226 215 224 225 221 225 218 209 179 200 212 194 167 185 175 191 184 170 181 183 185 166 176 194 193 179 175 169 172 191 218 173 197 187 179 195 190 197 204 221 205 209 238 235
246 235 254 254 252 249 229 229 228 230 225 205 225 197 196 196 142 189 191 180 209 175 195 182 191 181 168 162 161 161 200 194 182 204 192 231 200 189 171 190 205 201 207 243 204 208 229
289 290 297 316 288 275 263 265 257 226 239 216 212 207 215 221 162 191 196 166 163 211 159 183 148 153 177 194 159 194 170 191 198 199 191 165 204 175 170 173 197 200 209 219 245 209 210
348 260 274 291 296 360 254 267 318 307 261 219 235 230 239 207 220 188 185 201 203 168 170 186 160 186 162 181 195 189 167 180 185 150 226 217 219 176 178 169 185 195 209 208 265 204 210
327 324 318 318 320 331 336 332 336 284 260 314 325 266 247 216 220 224 231 201 193 162 187 173 163 182 194 190 183 159 189 194 219 176 195 212 194 203 175 176 194 212 204 215 263 233 224
297 298 304 305 322 291 319 318 314 285 335 347 359 333 304 259 260 220 245 228 214 210 194 171 210 173 168 167 171 183 212 208 168 226 178 196 199 175 175 183 194 204 208 210 250 207 165
280 287 289 286 300 300 309 295 307 291 316 300 325 339 302 322 289 285 261 264 233 203 210 204 214 207 210 205 198 198 194 230 209 185 216 198 197 192 212 180 173 200 195 198 218 258 250
279 279 286 284 278 294 300 307 284 309 287 301 317 324 317 355 331 350 267 285 153 243 231 215 219 225 198 198 212 171 197 198 205 200 200 215 220 213 181 181 182 189 208 205 195 262 241
284 292 296 302 298 292 297 347 339 286 307 301 323 311 304 314 343 413 330 303 295 277 246 239 223 226 236 225 205 200 163 235 193 215 200 148 202 192 176 177 173 194 222 205 189 265 242
291 327 341 389 423 373 369 366 324 315 334 320 384 345 236 307 322 280 92 370 266 297 284 276 256 257 207 212 200 218 237 227 216 216 205 223 216 207 185 184 209 196 197 207 193 199 255
418 421 405 397 406 411 421 433 439 409 358 364 354 371 299 317 146 297 355 360 360 344 155 139 249 243 266 237 220 235 233 207 216 196 177 223 199 184 193 207 190 187 213 192 207 180 209
391 384 392 408 380 384 389 435 355 354 365 345 339 384 347 304 316 309 331 370 354 341 139 241 252 253 248 251 244 224 221 235 212 209 209 204 218 202 175 205 179 198 216 215 166 184 194
381 398 437 431 378 370 391 374 351 368 349 358 354 368 373 149 126 206 330 199 144 339 297 274 244 244 239 237 240 220 217 216 211 201 201 211 199 211 196 192 189 209 194 173 211 221 201
400 445 451 405 379 382 379 391 362 350 257 342 352 338 188 209 301 233 410 249 131 218 234 199 264 241 234 242 234 228 226 218 208 210 191 202 202 211 202 196 193 207 188 200 209 223 203
436 433 423 403 382 381 407 361 360 339 336 339 340 360 343 316 95 292 387 165 245 134 257 265 237 240 243 237 234 228 219 216 209 210 214 208 199 178 199 189 201 177 216 185 206 226 204
431 421 429 402 393 395 386 361 355 99 337 338 347 341 315 302 296 339 456 326 189 124 279 262 238 243 236 246 235 234 226 215 207 212 215 181 200 185 203 190 190 213 184 212 197 176 189
440 391 384 394 393 411 367 337 341 338 333 346 347 316 304 232 326 251 332 319 294 276 247 255 241 241 229 235 244 228 195 217 208 203 210 191 189 203 169 175 174 208 202 189 201 211 229
415 392 400 400 389 390 352 365 340 343 342 352 325 297 159 317 81 427 339 306 227 268 246 247 242 239 244 244 253 224 216 195 193 209 202 204 200 208 178 204 209 192 213 200 216 210 209
381 380 386 375 374 367 364 342 339 338 350 325 301 298 308 319 384 457 318 305 271 273 226 119 248 233 242 245 240 226 210 219 210 208 208 200 202 205 189 195 196 202 198 189 219 207 209

GFSGBSN_2pvu_pres_033.txt.gz
Presure
203 195 177 186 165 188 167 186 193 169 173 196 194 190 193 137 182 194 209 208 228 218 221 210 210 202 215 205 185 194 203 199 212 202 200 189 213 205 199 201 208 226 247 240 303 286 262
193 183 171 193 186 189 188 169 162 180 193 190 184 182 181 171 168 168 181 174 200 208 198 212 206 205 193 199 205 201 194 205 194 194 210 197 210 204 210 202 202 218 248 230 273 272 261
193 189 184 189 182 194 182 180 190 182 186 194 195 167 182 179 207 167 189 175 207 179 209 182 165 201 185 199 193 193 184 194 186 197 187 215 195 199 175 194 203 219 241 219 248 259 274
190 186 187 189 188 186 185 192 194 184 194 184 190 184 186 174 187 201 157 189 170 181 179 172 189 191 189 178 193 171 189 187 193 197 191 187 188 227 140 194 201 213 229 219 242 280 261
190 190 195 192 190 189 179 182 191 191 195 194 194 186 174 177 182 183 198 167 169 183 169 179 185 183 173 188 178 184 189 186 179 189 176 190 197 193 212 199 203 208 222 222 245 230 254
196 195 191 194 191 191 192 187 197 199 191 192 196 182 166 155 163 197 198 193 168 166 186 155 177 184 188 180 191 161 201 186 200 168 194 181 189 202 201 217 187 200 210 239 214 235 244
204 191 195 199 195 192 193 196 185 185 187 177 191 174 170 164 201 195 212 200 177 192 180 174 206 192 188 190 164 187 170 196 185 180 179 204 194 177 197 207 201 201 206 257 207 232 231
218 187 203 205 204 207 205 175 192 166 173 189 189 192 178 174 190 205 192 158 193 190 156 173 176 169 170 175 198 171 201 185 188 167 199 177 188 184 243 208 179 192 205 213 213 215 236
217 197 217 214 215 208 211 200 203 199 191 201 190 168 169 180 180 172 204 210 188 174 182 185 179 188 180 194 196 187 181 209 161 191 184 188 211 179 185 202 196 186 192 208 242 204 223
208 226 207 207 223 217 213 201 214 199 217 206 190 199 191 198 212 191 190 179 222 177 168 190 180 157 188 166 173 172 187 203 201 190 175 179 196 174 211 182 204 177 188 210 212 205 207
236 220 214 218 233 221 196 229 202 219 217 230 185 222 209 207 197 216 181 180 191 215 188 202 191 174 198 187 176 183 183 175 194 177 165 184 205 174 219 215 176 179 181 195 210 217 205
237 232 238 232 238 230 246 226 235 251 237 233 220 207 213 208 231 201 218 200 175 177 192 189 178 173 180 186 180 171 170 187 195 160 198 170 197 186 200 202 205 189 182 189 209 210 248
255 259 264 256 251 248 251 249 240 240 231 221 233 212 213 226 225 229 214 232 161 172 156 173 189 182 184 185 181 176 186 158 173 156 196 160 186 178 170 207 208 181 190 185 199 215 225
274 278 270 278 280 288 279 269 262 259 273 271 260 250 224 218 233 216 200 195 195 215 183 200 191 175 197 198 183 185 178 188 157 185 198 182 165 189 201 205 225 194 170 175 203 210 215
309 296 288 271 274 274 265 285 292 284 300 309 273 270 270 257 232 236 212 222 219 210 201 178 180 192 187 170 189 191 150 185 196 187 197 198 164 204 185 221 220 182 172 178 185 205 211
330 332 325 318 319 326 324 327 331 333 331 338 267 327 309 296 278 261 253 256 221 231 189 193 198 204 196 190 173 197 179 186 189 171 166 164 181 177 191 212 204 203 170 182 194 207 215
311 308 300 296 296 300 297 294 298 295 303 316 312 326 319 333 344 356 286 267 263 220 190 234 206 198 194 193 170 189 181 196 182 174 161 200 194 170 207 178 178 175 179 188 178 184 216
289 288 284 283 291 287 286 297 295 295 295 303 301 316 312 302 315 341 355 313 263 269 252 222 217 209 215 195 195 194 187 174 174 168 188 169 193 194 207 196 209 207 165 172 183 172 217
277 285 288 285 292 285 278 293 292 277 281 283 300 297 283 316 312 288 328 346 271 229 253 236 244 215 216 202 195 193 195 195 182 198 205 210 212 202 189 226 175 209 190 176 200 178 218
291 300 291 278 279 295 279 275 279 303 275 261 301 300 289 97 296 326 210 319 244 177 275 309 262 221 228 211 210 200 200 203 204 198 198 208 207 190 155 207 206 197 186 185 189 186 186
270 282 281 280 285 296 299 289 293 281 293 266 301 293 140 298 121 261 257 297 306 332 345 383 335 252 244 223 225 205 207 211 206 200 209 205 210 201 210 187 210 207 198 178 186 198 186
278 281 316 327 351 382 372 366 349 334 337 315 324 315 311 112 336 210 286 113 105 319 327 399 359 298 248 217 229 218 216 212 215 211 214 208 208 197 221 209 177 194 185 206 174 197 184
313 351 404 409 400 393 391 390 386 403 329 351 360 365 332 332 349 337 299 315 182 140 322 388 314 309 282 275 239 239 230 233 226 230 225 190 240 216 212 219 206 209 189 182 177 189 191
400 398 382 373 368 365 364 370 379 400 351 358 357 353 371 236 352 350 141 92 303 302 246 261 325 320 293 271 270 257 232 237 236 234 236 203 197 229 193 212 202 179 202 209 185 180 193
385 459 467 412 391 384 382 374 382 398 351 334 346 84 357 359 314 359 330 113 117 149 194 205 314 317 282 274 272 263 251 252 260 270 258 227 237 214 215 207 199 198 194 181 179 197 185
476 433 427 428 405 403 405 409 403 380 344 349 349 348 175 345 293 221 131 300 277 195 150 146 305 293 299 292 269 263 255 250 258 260 242 242 231 217 214 203 173 194 200 182 198 185 86
430 431 417 416 417 410 429 394 357 388 342 334 335 352 345 181 359 340 279 297 240 301 401 254 295 295 278 279 274 259 248 254 246 244 242 243 222 211 201 184 201 196 206 205 168 208 134
438 423 440 425 415 410 382 358 369 337 338 336 347 331 332 341 217 327 242 315 306 318 320 292 305 284 276 280 268 241 248 249 245 184 231 235 221 212 209 206 192 202 185 194 172 170 186
396 382 375 428 399 384 377 383 351 339 337 343 327 324 331 330 327 321 317 310 305 354 367 298 191 272 274 282 259 255 247 237 243 237 231 227 213 214 198 211 181 200 199 207 184 203 203

GFSGBSN_2pvu_pres_039.txt.gz
Presure
222 246 226 253 238 228 230 219 219 211 195 197 179 183 180 188 191 187 178 184 181 181 196 191 177 199 202 188 169 206 211 216 211 214 202 200 201 193 190 188 197 209 212 193 226 227 264
253 232 255 235 243 219 237 220 204 203 199 202 173 192 182 166 185 188 185 193 190 189 198 183 132 170 192 182 200 193 195 216 196 200 197 192 193 202 190 207 212 212 180 219 209 226 246
278 246 235 225 226 229 237 222 211 195 207 188 201 192 194 180 174 179 181 180 193 173 177 183 194 174 186 194 177 193 201 192 188 163 197 195 194 193 187 185 207 213 211 196 197 248 221
267 240 224 222 217 207 218 216 203 206 193 211 189 198 190 198 184 181 188 184 156 182 185 183 190 191 187 188 172 202 215 190 163 185 187 155 179 183 177 178 185 197 199 204 210 201 247
256 235 226 223 225 207 218 212 205 218 202 208 194 196 184 187 183 183 174 177 185 184 187 150 177 187 194 200 179 180 185 189 197 187 183 194 175 169 195 193 185 170 196 214 200 195 221
250 241 229 222 216 215 218 207 203 193 216 201 207 191 199 190 199 194 195 188 181 176 185 185 180 196 169 193 168 182 193 192 177 188 165 178 174 190 190 189 189 190 168 193 196 204 201
236 242 235 226 219 224 213 216 196 213 201 208 195 191 201 199 185 188 183 198 183 163 187 182 189 188 194 198 189 163 173 167 198 189 169 151 187 185 196 205 164 198 195 174 203 226 187
241 252 235 223 224 218 226 213 212 207 197 207 186 196 194 193 195 184 190 189 176 191 186 183 179 166 193 192 191 173 171 191 167 199 191 199 193 170 187 205 169 178 198 197 186 212 223
223 225 237 233 223 222 231 219 219 210 204 205 208 199 197 184 189 182 195 189 179 187 187 188 182 187 179 179 164 182 168 174 197 195 178 203 194 178 165 203 178 166 183 187 191 190 220
224 227 235 227 219 226 220 226 224 225 209 204 198 200 207 181 181 189 187 188 195 190 180 179 170 143 169 201 179 197 162 185 182 196 174 170 174 192 195 195 172 159 183 200 178 189 208
237 232 235 235 225 229 224 223 221 230 228 206 202 204 196 204 199 197 200 177 183 183 186 195 188 134 189 191 187 190 192 165 175 197 200 177 169 172 192 203 166 153 177 207 173 195 203
238 232 228 237 235 227 231 224 212 215 230 224 211 203 197 195 193 205 202 198 201 186 167 174 171 170 164 176 171 181 195 184 193 195 205 191 186 192 185 191 164 166 195 171 192 190 176
255 253 241 229 238 236 236 236 223 229 219 231 214 208 207 207 212 200 187 187 193 202 201 195 194 199 194 192 188 198 188 201 192 188 203 194 183 179 164 188 174 163 172 193 175 183 191
262 264 261 257 258 238 238 251 244 231 230 220 230 234 227 205 211 207 203 215 217 202 190 201 199 198 200 201 197 196 193 193 186 195 171 185 183 170 159 188 180 161 182 190 190 197 208
260 258 278 268 260 263 264 267 253 252 238 239 241 229 239 223 226 218 218 221 221 206 94 189 206 208 206 204 206 204 208 197 202 193 194 182 192 183 166 190 177 162 163 206 165 199 203
280 281 284 282 280 282 284 274 265 263 266 265 250 245 246 237 237 238 248 175 230 178 214 219 213 220 219 225 200 224 210 211 212 192 205 217 185 157 180 194 190 187 160 203 196 179 168
408 336 318 319 280 307 312 298 284 270 280 278 268 259 255 253 253 245 245 237 84 162 247 145 227 239 221 225 226 222 219 205 210 219 196 198 187 200 197 181 168 200 157 199 176 197 184
402 411 326 327 326 398 349 348 366 304 279 295 289 310 302 284 284 287 273 107 95 172 84 116 245 227 231 221 221 219 227 208 217 217 221 200 199 185 197 203 183 164 174 199 195 182 185
334 324 323 332 366 367 363 359 344 348 343 337 336 339 289 285 206 270 278 280 293 220 268 299 276 138 210 238 245 235 238 251 216 218 222 198 206 193 202 191 174 159 166 199 200 196 197
335 336 331 327 323 322 319 317 314 313 313 305 308 309 310 318 315 90 323 317 292 330 209 321 342 320 338 289 276 239 237 238 219 213 218 214 204 210 215 185 174 189 201 201 198 191 193
307 305 305 293 294 294 289 289 289 290 293 279 285 302 306 240 311 305 304 306 300 134 305 315 111 323 314 335 336 276 254 227 228 213 219 219 220 207 199 197 192 209 199 203 170 185 177
294 288 281 282 284 284 276 281 277 281 278 274 281 287 290 293 293 200 296 296 289 303 301 305 316 300 288 321 333 329 291 278 229 213 235 225 215 206 204 193 202 205 189 212 160 197 185
286 279 276 269 272 271 270 271 268 267 263 273 278 279 272 292 294 219 301 280 257 241 250 298 178 246 311 316 293 331 287 290 273 218 219 208 214 212 217 207 202 206 201 200 198 201 184
276 277 271 272 272 271 264 262 267 255 254 252 259 267 277 291 290 296 281 287 263 262 281 123 300 255 293 279 294 316 351 363 319 274 223 218 221 214 219 205 210 187 195 201 199 195 188
271 274 272 270 276 265 273 268 247 249 252 253 281 290 284 231 275 94 96 296 242 284 131 265 277 295 270 275 292 297 323 375 309 285 259 231 222 209 211 219 216 212 197 199 199 193 189
264 260 274 283 288 287 288 296 296 287 272 287 284 286 288 297 301 302 102 300 306 301 278 135 285 252 254 193 287 302 315 364 306 295 307 302 173 231 235 221 218 212 203 206 204 202 197
289 293 296 292 310 335 351 371 410 406 402 340 322 261 309 307 312 310 360 346 339 339 155 279 269 265 278 262 286 288 312 244 338 318 295 257 257 278 269 228 221 204 207 181 215 184 204
289 358 373 381 373 366 398 400 398 391 379 365 359 289 353 349 340 364 324 119 115 256 270 347 302 256 271 302 285 298 294 327 308 301 283 278 271 264 240 276 237 239 206 211 159 109 208
370 355 354 403 401 392 400 397 404 422 235 393 424 387 365 372 386 344 330 120 338 340 336 365 213 284 346 275 268 333 324 298 304 282 271 239 261 275 262 282 296 275 218 216 231 210 211

GFSGBSN_2pvu_pres_042.txt.gz
Presure
192 201 224 194 202 210 294 271 261 246 213 241 232 226 216 194 205 195 168 192 197 205 190 189 175 182 178 199 184 193 203 197 216 198 219 204 197 200 196 200 188 195 187 193 214 227 243
203 209 242 209 274 304 275 271 256 245 242 231 223 234 210 191 206 205 189 194 177 178 178 215 183 180 191 132 173 196 187 200 189 203 196 181 203 201 197 187 187 183 187 189 233 221 241
322 214 198 303 279 296 270 266 253 243 239 227 217 232 206 207 204 193 204 178 191 179 203 188 189 192 188 149 191 166 193 170 190 205 215 184 187 192 177 188 176 190 178 159 225 196 209
289 300 292 295 282 279 264 256 243 246 192 227 213 226 204 213 200 202 190 201 201 195 182 188 186 175 178 183 178 166 190 189 189 192 211 197 170 174 200 192 176 202 183 213 188 200 210
269 267 300 283 271 269 255 238 234 229 230 228 219 220 208 219 197 190 194 194 194 179 194 181 175 177 176 186 192 189 185 194 194 197 212 199 167 178 191 173 183 163 193 172 166 182 221
217 291 232 270 247 258 248 240 230 218 219 230 230 223 206 203 208 198 199 190 195 191 191 179 180 174 173 181 178 189 174 190 192 186 167 195 173 188 194 151 187 174 210 199 181 189 198
292 276 252 267 252 247 242 235 228 213 228 221 208 226 212 204 196 194 192 204 191 186 194 171 178 171 187 182 180 191 182 189 200 187 177 167 199 212 164 193 171 180 188 171 172 191 201
280 270 256 253 252 258 243 234 219 228 217 226 218 216 224 207 203 205 197 202 203 187 190 185 186 189 181 179 174 188 168 175 185 202 177 178 183 193 150 177 177 192 188 184 195 197 180
276 269 251 248 231 251 244 225 220 219 221 223 211 214 216 213 211 202 213 204 218 199 171 193 191 180 179 173 167 158 186 185 190 184 194 188 181 188 202 195 190 166 196 167 163 174 194
275 258 256 252 249 242 233 239 237 228 224 218 215 214 216 203 215 209 201 213 204 175 195 192 194 184 172 180 171 189 190 159 151 186 200 186 165 198 208 188 197 163 191 166 180 173 198
265 258 259 251 249 239 235 237 247 232 230 221 225 225 212 208 215 208 212 181 207 196 182 194 192 199 200 199 182 188 192 191 187 177 196 167 190 179 174 206 174 170 174 194 164 193 171
272 265 254 264 254 237 241 219 237 242 233 233 213 221 216 215 207 213 212 203 204 193 184 193 184 167 170 174 163 179 160 183 180 187 187 184 192 197 179 200 169 165 182 199 167 160 189
273 281 266 254 267 255 243 238 222 226 240 229 240 228 226 221 229 217 217 206 198 201 199 192 187 189 191 186 177 181 184 183 187 181 171 163 180 193 193 183 189 199 202 191 180 164 181
249 247 247 236 269 257 252 252 234 234 231 237 240 229 229 224 231 226 230 225 208 81 181 190 214 193 191 189 192 190 190 187 186 185 182 198 196 197 209 193 200 215 202 184 198 160 165
261 258 256 262 265 266 269 262 268 247 244 235 236 244 224 236 234 228 229 104 222 196 175 208 100 142 199 199 203 186 195 190 196 205 204 192 196 202 202 196 181 169 157 181 195 157 153
252 253 261 270 277 275 284 261 289 278 266 252 246 246 239 234 235 237 228 222 210 148 213 210 205 201 204 203 195 191 196 196 196 198 196 202 196 205 214 174 186 180 167 191 180 159 166
301 345 445 436 426 416 372 280 278 268 290 280 268 262 239 245 246 247 127 227 93 84 93 132 215 162 210 205 203 203 196 199 201 204 204 205 205 204 207 221 208 192 157 207 182 200 179
327 411 409 410 402 392 398 403 391 258 271 291 298 274 274 269 263 265 256 241 229 229 234 229 225 227 219 210 211 209 202 204 206 202 204 216 218 207 223 201 216 186 197 208 183 169 193
397 389 385 379 383 388 409 407 402 319 322 325 296 270 293 289 282 260 166 92 260 257 244 240 225 229 229 229 229 225 220 221 224 225 218 213 216 216 213 216 221 223 195 167 193 163 159
390 378 369 385 402 371 372 358 326 318 323 312 354 334 375 377 225 282 78 297 268 217 257 255 255 209 240 240 187 228 226 226 216 225 225 224 220 227 210 200 202 211 222 202 201 205 160
357 382 328 315 310 328 329 340 339 343 331 326 335 350 360 340 152 297 262 322 324 221 317 280 133 316 320 250 258 217 250 242 245 237 227 223 224 212 212 214 206 205 218 210 209 160 165
319 333 327 338 323 308 310 314 312 312 306 304 313 319 315 310 308 302 305 309 305 311 309 315 317 228 324 333 342 326 340 297 280 251 242 234 242 241 236 223 225 217 217 217 202 162 199
319 323 313 299 298 296 287 287 281 276 279 284 291 294 292 292 264 227 290 119 208 295 300 295 296 298 309 303 307 313 325 337 323 291 274 270 248 237 243 232 226 230 219 220 210 201 202
305 295 291 287 285 283 280 272 274 275 275 275 277 280 288 290 202 278 275 193 277 275 283 280 161 253 287 286 293 262 311 321 343 341 298 290 289 288 273 245 239 121 153 217 221 217 182
295 287 283 282 279 277 275 270 269 268 272 274 274 280 283 284 282 279 280 271 276 279 282 279 271 123 136 256 289 297 304 311 326 335 353 315 260 265 279 269 225 200 217 206 211 219 212
288 283 280 278 276 274 269 269 272 262 263 267 268 160 261 277 284 261 263 267 227 269 262 247 203 131 269 157 204 282 302 307 305 319 337 344 288 265 275 280 259 232 118 211 213 223 196
282 276 271 274 279 274 270 269 268 269 267 265 271 268 232 278 274 153 245 204 101 211 110 279 161 264 279 120 242 287 292 296 293 266 382 333 295 262 264 277 285 283 220 221 229 177 207
280 283 266 264 258 268 270 272 273 273 270 267 275 270 267 267 275 209 179 282 273 268 281 215 256 247 275 290 252 286 282 294 292 292 298 301 285 227 270 290 281 265 263 223 203 152 152
281 276 282 290 298 300 299 296 295 292 289 289 290 289 288 288 295 300 298 295 243 295 291 132 296 293 290 297 287 282 273 276 234 286 286 327 290 184 256 245 255 257 262 265 221 220 222

GFSGBSN_2pvu_pres_045.txt.gz
Presure
190 192 205 202 201 215 210 220 224 217 248 202 232 256 256 253 250 245 246 229 228 210 194 206 194 185 192 196 194 187 193 192 179 200 211 186 206 220 187 196 205 200 188 188 193 194 181
187 201 198 201 207 220 226 237 219 228 232 225 261 270 257 245 241 228 244 226 228 214 210 188 184 178 160 184 199 179 194 188 128 196 199 191 211 183 195 201 189 192 201 176 182 184 157
202 224 224 222 231 235 197 227 218 230 307 286 279 273 251 244 225 236 229 219 218 213 217 204 178 181 181 192 162 182 192 189 190 183 187 193 181 197 181 186 186 196 204 175 187 211 186
212 211 209 206 220 200 217 237 202 301 295 289 267 247 248 232 240 229 229 235 210 213 204 202 191 172 177 184 184 172 183 183 182 172 190 187 197 186 177 177 168 182 201 190 179 208 206
182 204 207 226 247 294 197 232 280 288 274 265 247 242 242 240 232 226 220 230 207 207 194 204 186 192 189 189 191 185 178 168 174 185 184 187 195 208 188 192 200 190 179 170 176 182 194
234 228 223 205 233 222 267 250 240 268 275 255 258 235 244 215 233 227 217 227 207 213 193 197 193 184 201 187 187 178 174 189 170 178 179 189 189 192 206 184 195 187 183 177 185 177 191
207 193 214 212 219 298 292 271 281 264 265 245 248 231 227 220 215 226 221 225 213 214 199 191 195 184 197 183 189 179 193 189 184 181 184 184 188 201 198 173 171 179 192 186 192 190 184
217 224 199 219 299 288 280 265 260 257 261 241 247 232 226 217 220 227 221 222 217 203 206 202 189 179 192 185 187 189 176 165 177 186 189 186 180 182 199 180 174 196 208 166 178 189 179
207 214 291 256 296 274 273 264 254 259 255 244 232 236 228 217 221 221 226 219 214 203 205 217 191 187 192 183 182 192 182 181 182 179 170 177 186 193 191 196 162 181 193 188 181 189 173
219 209 229 302 285 244 276 265 254 249 241 254 241 237 217 216 217 210 228 199 214 195 204 195 207 196 175 194 194 191 183 188 187 185 178 179 182 179 179 184 178 189 194 204 199 186 171
205 294 274 306 279 290 276 265 261 239 234 250 255 235 226 218 222 217 221 217 216 213 192 197 195 189 192 199 191 190 188 191 179 188 188 164 187 195 173 181 166 194 173 171 180 182 177
298 285 286 245 280 296 278 263 260 248 250 230 246 240 235 222 219 226 222 210 223 220 210 199 213 205 199 199 201 194 198 190 190 189 186 189 189 188 190 192 150 176 187 180 187 191 186
286 259 265 276 282 277 294 277 269 258 249 240 227 242 236 228 203 228 221 219 205 213 215 213 213 209 202 214 208 199 195 194 191 185 191 186 162 181 179 188 187 158 194 193 182 184 193
279 277 274 285 264 255 283 272 282 270 264 255 250 220 240 221 232 224 232 223 215 204 217 215 208 199 207 201 204 198 201 198 202 198 187 170 182 182 184 171 186 160 194 199 202 199 192
279 282 276 264 273 258 256 235 252 275 280 273 254 247 229 244 253 228 246 234 216 229 213 215 98 148 188 198 196 195 195 189 189 190 186 148 185 186 188 176 182 193 204 197 198 190 179
280 275 271 274 266 256 254 256 258 257 257 283 279 257 248 248 242 240 248 232 167 227 220 219 226 207 205 200 196 194 194 189 189 195 190 193 189 189 194 195 178 203 191 201 205 202 191
260 253 270 270 279 283 277 266 273 276 278 272 272 281 273 252 254 242 137 228 244 231 229 226 223 220 140 214 202 201 205 204 193 203 192 186 185 193 198 198 193 194 195 203 206 215 164
285 281 279 287 286 295 349 327 333 420 413 404 274 279 279 293 275 255 243 239 233 240 238 218 89 162 95 222 219 211 197 190 199 201 203 204 198 192 191 191 194 197 196 207 217 216 164
288 288 303 317 336 322 332 399 398 396 384 381 394 403 338 279 301 288 272 253 235 231 237 233 231 224 217 221 214 214 217 207 199 192 191 193 189 193 195 199 200 202 198 199 206 205 216
310 318 323 334 335 390 391 374 377 375 363 379 387 431 401 197 205 287 272 278 265 250 239 233 230 227 222 224 224 219 213 223 221 213 209 207 202 198 197 193 201 203 204 209 216 213 216
313 315 323 343 387 352 369 365 390 378 381 368 377 395 396 350 346 261 256 278 286 276 252 250 244 237 234 233 198 226 223 221 223 225 227 219 214 212 208 206 209 210 212 221 221 215 225
304 348 342 364 341 360 380 371 360 350 346 348 346 337 366 316 309 310 324 269 276 282 280 287 253 248 247 244 247 243 239 245 239 218 225 228 228 231 230 222 222 225 224 215 223 220 226
345 338 351 370 378 306 299 305 297 309 295 332 339 350 336 351 330 347 357 153 342 342 293 253 145 288 279 268 261 256 258 253 252 253 254 254 257 252 241 236 224 222 218 223 220 213 209
331 365 359 309 327 318 333 326 321 322 319 330 330 332 335 326 317 102 132 309 314 204 306 307 308 89 283 299 281 301 283 305 297 289 285 280 257 256 259 246 252 244 228 239 235 223 222
362 348 329 317 322 321 298 294 293 290 293 299 295 302 300 287 289 79 289 289 294 291 263 290 291 294 157 136 307 310 314 309 314 332 342 342 251 300 300 307 297 258 103 132 243 220 221
335 318 314 310 307 296 288 285 279 271 279 286 289 286 163 266 268 274 278 283 151 184 274 277 131 281 286 292 295 300 302 302 305 310 312 322 333 343 355 291 277 282 267 253 245 250 227
313 301 295 292 290 287 286 282 283 277 270 268 275 274 275 268 265 267 182 89 270 274 274 269 266 257 191 187 289 290 294 295 295 302 304 305 309 323 329 342 313 262 193 109 136 118 210
303 289 287 287 286 283 279 277 275 273 269 268 275 268 269 271 272 272 203 265 199 97 264 267 272 276 131 290 262 294 282 200 288 288 291 292 297 304 315 335 303 290 300 254 270 274 115
296 293 290 287 284 279 277 274 269 267 270 270 270 267 266 266 272 267 260 251 253 172 256 109 105 184 110 253 138 272 253 261 284 292 273 267 283 289 285 311 390 314 314 276 298 263 275

GFSGBSN_2pvu_pres_048.txt.gz
Presure
181 183 176 187 200 189 157 186 181 190 212 224 214 191 232 263 225 234 270 210 238 266 196 243 229 218 224 210 195 184 205 188 167 191 186 192 191 212 213 229 203 194 195 189 195 165 178
177 178 190 186 160 189 179 198 201 209 222 221 249 230 245 244 295 300 271 268 254 253 243 238 202 206 218 212 185 196 195 201 182 199 191 194 197 189 193 201 180 191 189 180 185 201 199
170 184 173 205 213 215 194 211 212 215 203 242 196 224 221 242 312 286 273 255 253 251 246 252 230 216 151 223 194 187 197 195 195 180 172 191 198 201 193 211 189 189 183 188 184 191 195
202 200 206 200 196 214 219 200 225 221 220 254 222 218 230 302 314 296 260 256 250 243 246 240 223 212 216 206 189 185 188 193 192 191 191 191 175 202 189 183 210 198 198 191 171 188 177
215 212 213 216 217 208 205 220 235 220 250 213 221 270 287 289 275 264 246 254 241 240 237 240 219 210 212 198 200 198 181 171 185 183 183 191 176 190 169 178 202 188 187 189 182 193 174
216 218 207 227 225 215 204 227 207 265 224 246 275 286 272 283 268 268 251 247 239 238 229 230 210 209 204 192 202 186 186 189 185 178 190 175 184 180 177 190 200 182 190 190 191 180 186
202 228 205 205 209 203 206 234 236 254 242 282 276 262 257 270 260 252 249 238 229 231 233 226 220 206 200 202 209 196 183 191 186 188 176 178 172 183 184 170 188 173 203 177 187 195 193
219 205 212 215 210 213 222 239 232 227 229 285 266 261 254 262 250 254 239 226 227 222 222 220 220 202 205 202 198 199 189 186 196 187 186 178 186 182 187 186 187 171 196 197 180 180 197
222 206 210 216 211 231 228 259 249 224 230 283 269 254 243 258 254 243 233 232 225 232 225 218 223 202 201 199 188 200 195 184 196 179 189 175 178 178 169 177 181 186 178 170 176 189 199
205 207 216 218 229 246 245 233 305 296 251 289 276 253 246 254 250 234 228 226 219 211 229 220 210 205 213 197 197 200 197 183 184 189 185 183 185 185 187 167 171 186 181 180 182 189 184
207 215 216 228 216 226 253 280 296 296 278 282 274 256 258 252 242 240 237 220 226 216 218 225 227 205 198 214 193 187 193 195 186 183 187 186 187 179 192 188 180 179 199 175 197 184 168
212 223 220 243 237 259 302 296 297 269 273 284 282 268 254 261 255 243 237 221 230 210 213 218 215 218 211 199 208 202 193 191 185 188 186 185 188 179 158 191 186 188 177 189 167 175 175
228 229 235 248 290 304 297 289 272 263 260 283 251 279 261 242 257 236 239 228 221 229 219 212 210 202 214 208 199 198 202 201 193 187 193 187 179 187 186 182 191 186 182 185 173 158 156
237 244 259 303 290 292 280 275 270 267 277 250 264 272 242 253 250 253 248 229 224 230 230 221 218 209 207 205 202 193 198 194 185 187 195 196 195 186 189 189 186 192 174 168 188 186 186
263 300 298 296 299 295 287 289 281 274 270 287 256 262 271 261 234 241 240 253 227 232 213 233 217 214 107 189 201 198 196 192 194 195 196 200 202 195 199 193 190 194 184 192 179 188 173
292 293 292 288 287 279 268 272 270 280 273 269 284 269 276 290 265 255 242 247 248 245 227 216 165 137 198 216 221 163 208 199 197 190 195 197 192 201 194 193 183 176 198 193 183 189 179
292 286 284 281 276 265 255 250 262 274 257 269 269 265 264 270 305 286 260 249 245 239 246 234 217 217 219 206 207 211 208 216 129 216 214 217 212 204 202 202 200 191 169 185 173 183 191
288 286 278 275 278 280 278 278 276 255 244 250 251 272 262 253 259 297 292 261 248 238 244 233 232 248 217 215 214 201 208 211 201 204 203 198 201 194 197 198 197 197 192 196 187 193 199
287 284 283 276 276 271 280 291 300 304 324 341 349 346 361 152 310 287 273 292 251 241 240 239 240 228 132 246 219 211 220 211 210 203 208 199 195 194 195 195 195 189 186 187 195 197 206
334 330 321 315 312 313 306 307 324 320 336 342 398 405 408 413 421 423 430 275 292 253 241 238 240 242 157 231 229 230 174 169 231 223 208 208 206 202 202 204 207 204 205 208 211 202 198
389 373 347 327 322 316 309 325 313 312 339 373 393 380 394 411 137 400 400 370 266 279 259 244 237 233 228 231 231 235 229 228 230 230 223 220 214 212 203 197 196 198 194 196 196 202 198
377 374 362 349 331 319 320 310 314 326 344 356 378 376 372 409 409 390 390 388 230 256 266 267 247 245 236 231 228 226 233 232 226 216 219 221 220 222 220 216 212 207 210 207 205 203 200
355 354 353 354 318 304 308 306 330 346 340 354 396 409 376 371 365 372 367 354 348 155 260 259 269 270 209 240 234 227 227 227 228 229 226 223 223 220 210 218 221 220 208 211 212 213 214
450 352 337 318 311 317 320 329 338 344 379 331 335 357 361 345 352 350 339 340 171 327 268 258 263 271 276 272 258 250 244 240 237 229 224 227 226 220 216 216 218 209 213 216 227 227 227
422 364 339 332 324 322 329 351 365 332 326 311 299 305 333 335 337 229 331 305 306 326 309 288 255 264 263 266 269 267 268 262 251 251 247 245 244 249 250 246 169 238 119 171 164 224 220
360 340 330 325 319 340 347 315 335 306 323 330 334 336 334 308 311 310 319 104 296 293 325 303 327 267 261 263 260 168 266 274 279 283 275 260 257 235 252 246 253 239 253 255 260 245 133
326 324 322 323 348 340 327 316 314 319 314 305 313 315 316 314 313 308 162 308 309 94 235 305 307 317 320 322 322 229 280 217 301 274 300 266 258 270 279 215 272 106 192 287 288 283 142
321 331 347 352 333 318 313 310 304 288 289 292 290 286 287 296 301 297 293 296 294 293 292 171 296 304 222 305 303 308 306 305 313 314 314 317 321 324 328 298 240 305 314 312 279 296 191
342 339 332 317 309 303 300 296 288 283 278 276 277 286 212 268 260 278 277 256 275 254 273 106 257 276 127 285 289 287 290 295 296 293 294 289 294 292 295 306 190 325 327 325 327 337 351